When you browse on this site, cookies collect data to enhance your experience and personalize the content and advertising you see.
Visit our Privacy Policy to learn more. By continuing to use the site, you agree to this use of cookies and data.
  • En España
  • Lista de países
  • Para 7 días
  • Temperatura del agua
  • Mapa Satelital
  • El tiempo en el mapa
  • Informadores
  • user-avatar
    Iniciar sesión

    Tiempo cada hora Jeddah

    Hoy, 19 Febrero, Martes

    Tiempo Temperatura Precipitaciones Viento Presión Humedad
    00:00 +22°C° 0 mm 8 mps 760 mmHg 47%
    01:00 +22°C° 0 mm 8 mps 760 mmHg 47%
    02:00 +22°C° 0 mm 8 mps 760 mmHg 47%
    03:00 +21°C° 0 mm 7 mps 760 mmHg 47%
    04:00 +21°C° 0 mm 7 mps 760 mmHg 46%
    05:00 +21°C° 0 mm 7 mps 760 mmHg 45%
    06:00 +21°C° 0 mm 7 mps 760 mmHg 45%
    07:00 +21°C° 0 mm 8 mps 760 mmHg 42%
    08:00 +21°C° 0 mm 8 mps 761 mmHg 40%
    09:00 +22°C° 0 mm 9 mps 761 mmHg 37%
    10:00 +23°C° 0 mm 9 mps 761 mmHg 34%
    11:00 +24°C° 0 mm 9 mps 761 mmHg 30%
    12:00 +26°C° 0 mm 9 mps 761 mmHg 27%
    13:00 +26°C° 0 mm 8 mps 760 mmHg 22%
    14:00 +27°C° 0 mm 8 mps 760 mmHg 18%
    15:00 +27°C° 0 mm 7 mps 759 mmHg 13%
    16:00 +27°C° 0 mm 7 mps 759 mmHg 14%
    17:00 +26°C° 0 mm 8 mps 759 mmHg 16%
    18:00 +26°C° 0 mm 8 mps 759 mmHg 17%
    19:00 +24°C° 0 mm 8 mps 760 mmHg 23%
    20:00 +23°C° 0 mm 8 mps 760 mmHg 28%
    21:00 +22°C° 0 mm 8 mps 761 mmHg 34%
    22:00 +22°C° 0 mm 8 mps 761 mmHg 35%
    23:00 +22°C° 0 mm 8 mps 761 mmHg 35%

    Mañana, 20 Febrero, Miércoles

    Tiempo Temperatura Precipitaciones Viento Presión Humedad
    00:00 +22°C° 0 mm 8 mps 760 mmHg 36%
    01:00 +22°C° 0 mm 7 mps 760 mmHg 32%
    02:00 +22°C° 0 mm 7 mps 760 mmHg 28%
    03:00 +21°C° 0 mm 7 mps 760 mmHg 24%
    04:00 +21°C° 0 mm 7 mps 760 mmHg 23%
    05:00 +21°C° 0 mm 7 mps 760 mmHg 21%
    06:00 +20°C° 0 mm 8 mps 760 mmHg 20%
    07:00 +21°C° 0 mm 8 mps 760 mmHg 19%
    08:00 +22°C° 0 mm 8 mps 760 mmHg 18%
    09:00 +23°C° 0 mm 8 mps 761 mmHg 17%
    10:00 +26°C° 0 mm 7 mps 760 mmHg 15%
    11:00 +28°C° 0 mm 6 mps 760 mmHg 13%
    12:00 +30°C° 0 mm 5 mps 760 mmHg 11%
    13:00 +30°C° 0 mm 5 mps 760 mmHg 11%
    14:00 +32°C° 0 mm 5 mps 759 mmHg 10%
    15:00 +32°C° 0 mm 4 mps 758 mmHg 10%
    16:00 +32°C° 0 mm 6 mps 758 mmHg 13%
    17:00 +30°C° 0 mm 7 mps 758 mmHg 15%
    18:00 +29°C° 0 mm 8 mps 758 mmHg 18%
    19:00 +28°C° 0 mm 7 mps 759 mmHg 25%
    20:00 +27°C° 0 mm 7 mps 759 mmHg 32%
    21:00 +26°C° 0 mm 6 mps 760 mmHg 39%
    22:00 +24°C° 0 mm 7 mps 760 mmHg 40%
    23:00 +24°C° 0 mm 7 mps 760 mmHg 41%

    Pasado mañana, 21 Febrero, Jueves

    Tiempo Temperatura Precipitaciones Viento Presión Humedad
    00:00 +24°C° 0 mm 7 mps 760 mmHg 42%
    01:00 +24°C° 0 mm 7 mps 759 mmHg 43%
    02:00 +23°C° 0 mm 7 mps 759 mmHg 44%
    03:00 +23°C° 0 mm 6 mps 758 mmHg 45%
    04:00 +22°C° 0 mm 6 mps 758 mmHg 44%
    05:00 +22°C° 0 mm 6 mps 759 mmHg 43%
    06:00 +22°C° 0 mm 5 mps 759 mmHg 42%
    07:00 +23°C° 0 mm 5 mps 759 mmHg 37%
    08:00 +25°C° 0 mm 4 mps 760 mmHg 31%
    09:00 +25°C° 0 mm 4 mps 760 mmHg 26%
    10:00 +27°C° 0 mm 4 mps 760 mmHg 24%
    11:00 +28°C° 0 mm 4 mps 760 mmHg 21%
    12:00 +29°C° 0 mm 4 mps 760 mmHg 19%
    13:00 +30°C° 0 mm 4 mps 759 mmHg 22%
    14:00 +30°C° 0 mm 5 mps 759 mmHg 25%
    15:00 +30°C° 0 mm 6 mps 758 mmHg 27%
    16:00 +29°C° 0 mm 6 mps 758 mmHg 33%
    17:00 +28°C° 0 mm 7 mps 758 mmHg 38%
    18:00 +28°C° 0 mm 7 mps 759 mmHg 43%
    19:00 +27°C° 0 mm 7 mps 759 mmHg 45%
    20:00 +27°C° 0 mm 6 mps 760 mmHg 47%
    21:00 +26°C° 0 mm 5 mps 760 mmHg 48%
    22:00 +26°C° 0 mm 5 mps 760 mmHg 49%
    23:00 +26°C° 0 mm 5 mps 760 mmHg 50%

    22 Febrero, Viernes

    Tiempo Temperatura Precipitaciones Viento Presión Humedad
    00:00 +25°C° 0 mm 4 mps 760 mmHg 50%
    01:00 +25°C° 0 mm 5 mps 760 mmHg 52%
    02:00 +25°C° 0 mm 5 mps 759 mmHg 54%
    03:00 +25°C° 0 mm 5 mps 759 mmHg 55%
    04:00 +23°C° 0 mm 5 mps 759 mmHg 55%
    05:00 +23°C° 0 mm 4 mps 759 mmHg 55%
    06:00 +23°C° 0 mm 4 mps 759 mmHg 55%
    07:00 +25°C° 0 mm 4 mps 759 mmHg 51%
    08:00 +25°C° 0 mm 4 mps 760 mmHg 47%
    09:00 +26°C° 0 mm 4 mps 760 mmHg 43%
    10:00 +27°C° 0 mm 4 mps 760 mmHg 40%
    11:00 +28°C° 0 mm 4 mps 760 mmHg 37%
    12:00 +29°C° 0 mm 5 mps 759 mmHg 33%
    13:00 +29°C° 0 mm 5 mps 759 mmHg 34%
    14:00 +30°C° 0 mm 6 mps 758 mmHg 34%
    15:00 +30°C° 0 mm 7 mps 757 mmHg 34%
    16:00 +29°C° 0 mm 7 mps 758 mmHg 37%
    17:00 +28°C° 0 mm 7 mps 758 mmHg 40%
    18:00 +28°C° 0 mm 7 mps 758 mmHg 43%
    19:00 +27°C° 0 mm 7 mps 759 mmHg 45%
    20:00 +27°C° 0 mm 6 mps 759 mmHg 47%
    21:00 +26°C° 0 mm 6 mps 760 mmHg 49%
    22:00 +26°C° 0 mm 5 mps 760 mmHg 50%
    23:00 +26°C° 0 mm 5 mps 759 mmHg 51%

    23 Febrero, Sábado

    Tiempo Temperatura Precipitaciones Viento Presión Humedad
    00:00 +25°C° 0 mm 5 mps 759 mmHg 51%
    01:00 +25°C° 0 mm 5 mps 759 mmHg 52%
    02:00 +25°C° 0 mm 5 mps 758 mmHg 52%
    03:00 +23°C° 0 mm 5 mps 758 mmHg 53%
    04:00 +23°C° 0 mm 4 mps 758 mmHg 52%
    05:00 +23°C° 0 mm 4 mps 758 mmHg 52%
    06:00 +23°C° 0 mm 4 mps 758 mmHg 51%
    07:00 +25°C° 0 mm 4 mps 758 mmHg 48%
    08:00 +26°C° 0 mm 3 mps 759 mmHg 45%
    09:00 +26°C° 0 mm 3 mps 759 mmHg 42%
    10:00 +28°C° 0 mm 3 mps 759 mmHg 40%
    11:00 +29°C° 0 mm 3 mps 759 mmHg 38%
    12:00 +30°C° 0 mm 3 mps 759 mmHg 37%
    13:00 +32°C° 0 mm 4 mps 758 mmHg 36%
    14:00 +32°C° 0 mm 4 mps 757 mmHg 35%
    15:00 +33°C° 0 mm 5 mps 757 mmHg 35%
    16:00 +32°C° 0 mm 5 mps 757 mmHg 36%
    17:00 +30°C° 0 mm 5 mps 757 mmHg 38%
    18:00 +29°C° 0 mm 6 mps 757 mmHg 39%
    19:00 +29°C° 0 mm 5 mps 758 mmHg 40%
    20:00 +28°C° 0 mm 4 mps 758 mmHg 42%
    21:00 +28°C° 0 mm 4 mps 758 mmHg 43%
    22:00 +28°C° 0 mm 3 mps 758 mmHg 43%
    23:00 +28°C° 0 mm 3 mps 758 mmHg 43%

    24 Febrero, Domingo

    Tiempo Temperatura Precipitaciones Viento Presión Humedad
    00:00 +27°C° 0 mm 3 mps 758 mmHg 42%
    01:00 +27°C° 0 mm 3 mps 757 mmHg 41%
    02:00 +27°C° 0 mm 3 mps 757 mmHg 39%
    03:00 +27°C° 0 mm 2 mps 756 mmHg 37%
    04:00 +27°C° 0 mm 2 mps 756 mmHg 36%
    05:00 +27°C° 0 mm 2 mps 756 mmHg 35%
    06:00 +27°C° 0 mm 2 mps 756 mmHg 34%
    07:00 +28°C° 0 mm 2 mps 757 mmHg 34%
    08:00 +29°C° 0 mm 2 mps 757 mmHg 34%
    09:00 +29°C° 0 mm 2 mps 757 mmHg 34%
    10:00 +31°C° 0 mm 3 mps 757 mmHg 36%
    11:00 +33°C° 0 mm 4 mps 756 mmHg 38%
    12:00 +34°C° 0 mm 5 mps 756 mmHg 40%
    13:00 +34°C° 0 mm 6 mps 755 mmHg 42%
    14:00 +35°C° 0 mm 7 mps 755 mmHg 43%
    15:00 +35°C° 0 mm 8 mps 754 mmHg 44%
    16:00 +34°C° 0 mm 8 mps 754 mmHg 47%
    17:00 +33°C° 0 mm 8 mps 754 mmHg 49%
    18:00 +33°C° 0 mm 9 mps 754 mmHg 52%
    19:00 +32°C° 0 mm 9 mps 755 mmHg 56%
    20:00 +31°C° 0 mm 9 mps 755 mmHg 60%
    21:00 +31°C° 0 mm 9 mps 755 mmHg 64%
    22:00 +29°C° 0 mm 8 mps 755 mmHg 67%
    23:00 +29°C° 0 mm 8 mps 755 mmHg 69%
    Mostrar más